{"data":{"norad_id":68316,"intl_designator":"2026-057Y","name":"STARLINK-37154","alt_names":[],"object_type":"PAYLOAD","status":"ACTIVE","operator":null,"country":"US","launch_date":"2026-03-20","launch_site_code":"AFWTR","launch_vehicle":null,"mission":null,"orbit_class":"UNKNOWN","rcs_meters":null,"size_class":null,"mass_kg":null,"dimensions":null,"purposes":["comms"],"wikipedia_slug":null,"has_3d_model":false,"image_url":null,"decayed_at":null,"tle_current":{"epoch":"2026-09-19T14:48:41.795424Z","epoch_age_seconds":124741,"freshness":"FRESH","line1":"1 68316U 26057Y   26262.61715041  .00016563  00000+0  51412-3 0  9993","line2":"2 68316  97.2853  27.9555 0001639  99.8477 260.2951 15.33451949 28375","mean_motion":15.33451949,"eccentricity":0.0001639,"inclination_deg":97.2853,"raan_deg":27.9555,"arg_perigee_deg":99.8477,"mean_anomaly_deg":260.2951,"bstar":0.00051412,"rev_number":2837,"period_min":93.905779110918,"perigee_km":464.40082342932,"apogee_km":466.64417501317,"semimajor_km":6843.6594992212,"source":"CELESTRAK","updated_at":"2026-09-20T09:00:43.881487Z"}}}